TimeMST,TemperatureF,Dew PointF,Humidity,Sea Level PressureIn,VisibilityMPH,Wind Direction,Wind SpeedMPH,Gust SpeedMPH,PrecipitationIn,Events,Conditions,WindDirDegrees,DateUTC
12:51 AM,-5.1,-13.0,69,30.23,8.0,NNW,23.0,33.4,0.00,Snow,Light Snow,330,2013-01-31 07:51:00
1:51 AM,-8.0,-16.1,68,30.28,9.0,NNW,25.3,33.4,0.00,Snow,Light Snow,330,2013-01-31 08:51:00
2:51 AM,-9.9,-18.9,65,30.32,9.0,NW,20.7,28.8,0.00,Snow,Light Snow,320,2013-01-31 09:51:00
3:51 AM,-11.9,-20.9,64,30.37,10.0,NW,13.8,21.9,0.00,,Clear,310,2013-01-31 10:51:00
4:51 AM,-14.1,-22.0,68,30.39,10.0,NW,16.1,-,N/A,,Clear,310,2013-01-31 11:51:00
5:51 AM,-16.1,-23.1,71,30.42,10.0,NW,16.1,-,0.00,,Clear,320,2013-01-31 12:51:00
6:51 AM,-17.0,-24.0,70,30.45,10.0,WNW,9.2,-,N/A,,Clear,300,2013-01-31 13:51:00
7:51 AM,-18.9,-26.0,70,30.48,10.0,WNW,10.4,-,N/A,,Clear,290,2013-01-31 14:51:00
8:51 AM,-17.0,-24.0,70,30.49,10.0,WNW,11.5,-,N/A,,Clear,290,2013-01-31 15:51:00
9:51 AM,-13.0,-22.0,64,30.48,10.0,WNW,17.3,-,0.00,Snow,Light Snow,290,2013-01-31 16:51:00
10:51 AM,-11.0,-20.9,62,30.47,10.0,West,16.1,-,0.00,,Clear,280,2013-01-31 17:51:00
11:51 AM,-8.0,-18.9,59,30.45,10.0,WNW,12.7,-,N/A,,Clear,290,2013-01-31 18:51:00
12:51 PM,-2.9,-15.0,56,30.41,10.0,WNW,11.5,-,N/A,,Clear,290,2013-01-31 19:51:00
1:51 PM,-2.9,-14.1,59,30.39,10.0,WNW,10.4,-,N/A,,Clear,290,2013-01-31 20:51:00
2:51 PM,1.0,-11.0,57,30.37,10.0,West,11.5,-,N/A,,Overcast,280,2013-01-31 21:51:00
3:51 PM,1.9,-9.0,60,30.36,10.0,West,11.5,-,N/A,,Overcast,270,2013-01-31 22:51:00
4:51 PM,3.0,-7.1,63,30.35,10.0,West,13.8,-,N/A,,Overcast,270,2013-01-31 23:51:00
5:51 PM,3.9,-6.0,64,30.33,10.0,West,6.9,-,N/A,,Overcast,270,2013-02-01 00:51:00
6:51 PM,6.1,-4.0,63,30.30,10.0,SSW,4.6,-,N/A,,Overcast,210,2013-02-01 01:51:00
7:51 PM,9.0,-0.0,67,30.28,10.0,Calm,Calm,-,N/A,,Overcast,0,2013-02-01 02:51:00
8:51 PM,12.0,3.0,67,30.25,10.0,WSW,3.5,-,N/A,,Overcast,250,2013-02-01 03:51:00
9:51 PM,15.1,6.1,68,30.22,10.0,WSW,6.9,-,N/A,,Overcast,240,2013-02-01 04:51:00
10:51 PM,16.0,7.0,68,30.18,10.0,SW,8.1,-,N/A,,Overcast,230,2013-02-01 05:51:00
11:51 PM,17.1,9.0,71,30.16,10.0,SW,6.9,-,N/A,,Overcast,230,2013-02-01 06:51:00